Location: Blangy-Tronville
(49.8790°N, 2.4226°E)
Time: 01:48:05
(UTC+00:00)

SJ-12 - Pass Details

Date: 18 November 2025
Orbit: 517 x 529 km, 97.8° (Epoch: 04 December)

Event Time Altitude Azimuth Distance (km) Brightness Sun altitude
Rises 17:03:56 0° 156° (SSE) 2,643 7.3 -9.8°
Reaches altitude 10° 17:06:02 10° 154° (SSE) 1,757 6.3 -10.1°
Maximum altitude 17:09:47 63° 73° (ENE) 589 3.7 -10.7°
Drops below altitude 10° 17:13:32 10° 352° (N) 1,765 6.3 -11.3°
Sets 17:15:39 0° 349° (N) 2,656 7.3 -11.6°
